[[{"header":{"parameterUnit":"m.s-1","parameterCategory":1,"la1":30.2991,"la2":30.254,"lo1":-89.0895,"lo2":-89.0444,"dy":0.0017,"dx":0.0017,"nx":28,"ny":28,"refTime":"2023-09-07T09:00:00:Z","depth":0,"parameterNumber":2,"parameterNumberName":"U-component_of_WINDS"},"data":[0,0,0,0,0,0,0,0,0,0,0,0,0,0,0,0,0,0,0,0,0,0,0,0,0,0,0,0,0,0,0,0,0,0,0,0,0,0,0,0,0,0,0,0,0,0,0,0,0,0,0,0,0,0,0,0,0,0,-1.5136,-1.5134,0,-1.5023,-1.5021,-1.502,-1.495,-1.4949,-1.4949,-1.4949,-1.4829,-1.4826,-1.4823,0,0,0,0,0,0,0,0,0,0,0,0,0,-1.5287,-1.5284,-1.5136,-1.5134,-1.5133,-1.5023,-1.5021,-1.502,-1.495,-1.4949,-1.4949,-1.4948,-1.483,-1.4826,-1.4823,0,0,0,0,0,0,0,0,0,0,0,0,0,-1.5202,-1.5283,-1.5136,-1.5085,-1.5079,-1.5023,-1.5021,-1.5019,-1.495,-1.4949,-1.4949,-1.4948,-1.4831,-1.4827,-1.4823,-1.4808,0,0,-1.481,-1.4808,0,0,0,0,0,0,0,0,-1.5207,-1.5197,-1.5094,-1.5088,-1.5082,-1.5,-1.5031,-1.4948,-1.495,-1.4999,-1.4949,-1.4948,-1.4886,-1.4877,-1.4857,-1.4802,-1.4797,-1.4809,-1.4807,-1.4805,-1.4804,0,0,0,0,0,0,0,-1.5213,-1.5201,-1.5091,-1.5092,-1.5085,-1.5066,-1.5054,-1.5015,-1.4947,-1.4994,-1.4989,-1.4977,-1.4882,-1.4861,-1.4854,-1.4795,-1.4809,-1.4805,-1.4803,-1.4801,-1.4721,-1.4722,0,0,0,0,0,0,-1.5227,-1.5206,-1.5094,-1.5087,-1.5144,-1.5064,-1.505,-1.5027,-1.4947,-1.4934,-1.4978,-1.4974,-1.4869,-1.4859,-1.4849,-1.4826,-1.4805,-1.4801,-1.4798,-1.4721,-1.4721,-1.4722,0,0,0,0,0,0,-1.5231,-1.5218,-1.5099,-1.5145,-1.5129,-1.5062,-1.5036,-1.5025,-1.5003,-1.4934,-1.4921,-1.4969,-1.4868,-1.4855,-1.4819,-1.4821,-1.4799,-1.4795,-1.472,-1.4721,-1.4721,-1.478,0,0,0,0,0,0,-1.5236,-1.522,-1.5214,-1.5146,-1.5127,-1.5072,-1.5037,-1.5023,-1.4997,-1.4991,-1.4922,-1.491,-1.4867,-1.4825,-1.4814,-1.4815,-1.4792,-1.472,-1.472,-1.4721,-1.4777,-1.4782,-1.4787,0,0,0,0,0,-1.5241,-1.5235,-1.5215,-1.5201,-1.5119,-1.5072,-1.5061,-1.5012,-1.4997,-1.4991,-1.4946,-1.4913,-1.4823,-1.4822,-1.4809,-1.4808,-1.4719,-1.472,-1.4721,-1.4775,-1.4781,-1.4787,0,0,0,0,0,0,-1.5304,-1.5225,-1.5202,-1.5173,-1.513,-1.506,-1.505,-1.502,-1.4979,-1.4975,-1.4914,-1.4899,-1.4869,-1.4835,-1.4836,-1.4789,-1.4767,-1.4765,-1.4813,-1.4818,-1.4822,-1.4831,-1.4788,0,0,0,0,0,-1.5314,-1.5284,-1.5216,-1.5197,-1.5177,-1.5118,-1.5095,-1.5061,-1.5014,-1.4995,-1.4948,-1.4902,-1.4863,-1.4838,-1.4799,-1.4772,-1.4756,-1.4765,-1.477,-1.4774,-1.4773,-1.4756,-1.4759,-1.4725,-1.4725,-1.4725,0,0,-1.5335,-1.5289,-1.5273,-1.5209,-1.5171,-1.514,-1.5103,-1.5071,-1.5047,-1.4989,-1.4952,-1.4916,-1.4861,-1.4829,-1.4813,-1.48,-1.4779,-1.4775,-1.4779,-1.4776,-1.4757,-1.476,-1.4763,-1.4725,-1.4725,-1.4725,0,0,-1.5358,-1.532,-1.53,-1.5264,-1.5208,-1.5169,-1.5164,-1.5099,-1.5073,-1.5036,-1.4991,-1.4961,-1.4896,-1.4858,-1.483,-1.4839,-1.4807,-1.4828,-1.4852,-1.4836,-1.4839,-1.4841,-1.4843,-1.4845,-1.4827,-1.4828,-1.4828,0,-1.5391,-1.5344,-1.5293,-1.5265,-1.5237,-1.5185,-1.5164,-1.513,-1.5064,-1.5046,-1.5033,-1.495,-1.4909,-1.4867,-1.487,-1.4849,-1.4841,-1.4835,-1.4843,-1.4844,-1.4845,-1.4847,-1.4848,-1.483,-1.483,-1.483,-1.483,0,-1.5387,-1.5355,-1.5345,-1.5284,-1.5255,-1.5231,-1.5175,-1.5152,-1.5121,-1.5082,-1.5044,-1.4993,-1.4942,-1.493,-1.4898,-1.4884,-1.4877,-1.4854,-1.4831,-1.4852,-1.4853,-1.4853,-1.4835,-1.4834,-1.4833,-1.4832,0,0,-1.5445,-1.5357,-1.5354,-1.5326,-1.5261,-1.5234,-1.5207,-1.5159,-1.514,-1.5096,-1.507,-1.5017,-1.4995,-1.4964,-1.4927,-1.4913,-1.4923,-1.4891,-1.4889,-1.4899,-1.4903,-1.4921,-1.4922,-1.4901,-1.4901,-1.4901,-1.4907,0,-1.5458,-1.5407,-1.5361,-1.5326,-1.5295,-1.5245,-1.5221,-1.5178,-1.5142,-1.5109,-1.5068,-1.5031,-1.5005,-1.4986,-1.497,-1.4925,-1.4923,-1.4924,-1.4876,-1.4875,-1.4891,-1.4923,-1.4941,-1.495,-1.4907,-1.4907,-1.4907,0,-1.5465,-1.5425,-1.5389,-1.5327,-1.5312,-1.5291,-1.5243,-1.5213,-1.5163,-1.5137,-1.5103,-1.5065,-1.5032,-1.5012,-1.4966,-1.4968,-1.4945,-1.492,-1.4919,-1.4912,-1.4892,-1.4916,-1.4951,-1.4952,-1.4907,-1.4907,-1.4907,0,-1.5511,-1.5448,-1.5417,-1.5395,-1.5322,-1.5308,-1.5277,-1.5226,-1.52,-1.5158,-1.514,-1.5094,-1.5069,-1.5033,-1.4983,-1.4974,-1.4942,-1.4918,-1.4918,-1.492,-1.4913,-1.4914,-1.4945,-1.49,-1.49,-1.49,-1.49,0,-1.553,-1.5509,-1.5437,-1.5418,-1.5393,-1.534,-1.5316,-1.528,-1.5235,-1.5208,-1.5161,-1.5136,-1.5072,-1.5039,-1.4999,-1.4967,-1.4955,-1.4933,-1.4922,-1.4937,-1.494,-1.4921,-1.4919,-1.49,-1.49,-1.49,-1.49,0,-1.5577,-1.5528,-1.5491,-1.5426,-1.5409,-1.5393,-1.5336,-1.5315,-1.5276,-1.5242,-1.5231,-1.5169,-1.5128,-1.5075,-1.5016,-1.499,-1.4961,-1.4945,-1.4979,-1.4972,-1.4976,-1.4976,-1.4995,-1.4994,-1.4951,-1.4951,-1.4951,0,-1.5592,-1.5575,-1.5508,-1.5487,-1.5457,-1.5424,-1.5397,-1.5344,-1.5318,-1.5259,-1.5245,-1.5201,-1.5162,-1.5098,-1.5047,-1.5002,-1.4984,-1.4994,-1.4977,-1.4992,-1.4984,-1.4986,-1.4983,-1.4998,-1.4999,-1.5,-1.5,0,-1.5624,-1.56,-1.5565,-1.552,-1.549,-1.5453,-1.5413,-1.5398,-1.5335,-1.5308,-1.5266,-1.5237,-1.5177,-1.5133,-1.5081,-1.5047,-1.5013,-1.5006,-1.5004,-1.5018,-1.5038,-1.5027,-1.499,-1.5006,-1.5005,-1.5005,-1.5004,-1.5004,-1.5654,-1.5637,-1.5587,-1.5549,-1.5513,-1.5477,-1.5455,-1.5413,-1.5378,-1.5326,-1.5296,-1.5255,-1.5204,-1.5132,-1.5099,-1.5065,-1.5052,-1.5049,-1.5048,-1.5048,-1.5052,-1.5044,-1.5056,-1.5055,-1.5055,-1.5055,-1.5055,0,-1.5683,-1.5649,-1.5614,-1.5561,-1.553,-1.5502,-1.5457,-1.5433,-1.5397,-1.5354,-1.5317,-1.5268,-1.5225,-1.5172,-1.5125,-1.5108,-1.5091,-1.5097,-1.5098,-1.509,-1.5067,-1.5074,-1.5112,-1.5112,-1.5112,-1.5112,-1.5112,-1.5112,-1.5695,-1.5664,-1.5635,-1.5585,-1.555,-1.5511,-1.5487,-1.5453,-1.5418,-1.5366,-1.5331,-1.5297,-1.5248,-1.5198,-1.5157,-1.5142,-1.5126,-1.5138,-1.5118,-1.5097,-1.5092,-1.5087,-1.5093,-1.5135,-1.5135,-1.5144,-1.5144,-1.5144]},{"header":{"parameterUnit":"m.s-1","parameterCategory":1,"la1":30.2991,"la2":30.254,"lo1":-89.0895,"lo2":-89.0444,"dy":0.0017,"dx":0.0017,"nx":28,"ny":28,"refTime":"2023-09-07T09:00:00:Z","depth":0,"parameterNumber":3,"parameterNumberName":"V-component_of_WINDS"},"data":[0,0,0,0,0,0,0,0,0,0,0,0,0,0,0,0,0,0,0,0,0,0,0,0,0,0,0,0,0,0,0,0,0,0,0,0,0,0,0,0,0,0,0,0,0,0,0,0,0,0,0,0,0,0,0,0,0,0,0.389,0.3891,0,0.3996,0.3997,0.3998,0.3893,0.3889,0.3884,0.3881,0.3992,0.3999,0.4006,0,0,0,0,0,0,0,0,0,0,0,0,0,0.3597,0.3603,0.389,0.3891,0.3892,0.3996,0.3997,0.3999,0.3894,0.3888,0.3883,0.3879,0.399,0.3998,0.4006,0,0,0,0,0,0,0,0,0,0,0,0,0,0.3716,0.3605,0.3889,0.3852,0.385,0.3995,0.3997,0.3999,0.3895,0.3888,0.3882,0.3876,0.3987,0.3997,0.4007,0.4196,0,0,0.4039,0.4043,0,0,0,0,0,0,0,0,0.3709,0.3727,0.3856,0.3855,0.3853,0.3925,0.3935,0.4065,0.3896,0.3878,0.388,0.3873,0.3975,0.3986,0.402,0.4201,0.4206,0.404,0.4046,0.405,0.4053,0,0,0,0,0,0,0,0.3701,0.3722,0.3932,0.3858,0.3856,0.3831,0.3841,0.3959,0.396,0.3879,0.3871,0.3885,0.3973,0.401,0.4022,0.4208,0.404,0.4049,0.4055,0.4059,0.4547,0.4553,0,0,0,0,0,0,0.3697,0.3715,0.3928,0.3935,0.3764,0.3841,0.3852,0.3908,0.3959,0.396,0.3891,0.388,0.3996,0.401,0.4025,0.4248,0.405,0.406,0.4066,0.454,0.4548,0.4556,0,0,0,0,0,0,0.3691,0.3717,0.3924,0.3823,0.3847,0.3853,0.3916,0.3913,0.395,0.3967,0.3967,0.3928,0.3991,0.4011,0.4154,0.425,0.4065,0.4074,0.4532,0.4543,0.4552,0.4696,0,0,0,0,0,0,0.3683,0.3715,0.3787,0.3825,0.3853,0.4051,0.3922,0.392,0.3968,0.3955,0.4003,0.4005,0.3988,0.4139,0.4164,0.4261,0.4082,0.4523,0.4537,0.4549,0.4683,0.471,0.4733,0,0,0,0,0,0.3673,0.3824,0.3791,0.3817,0.3943,0.4057,0.4073,0.405,0.3976,0.4048,0.4059,0.4003,0.4235,0.4154,0.4182,0.4284,0.4517,0.4533,0.4548,0.4672,0.4705,0.4733,0,0,0,0,0,0,0.3799,0.3829,0.3792,0.3961,0.4007,0.4039,0.4129,0.4086,0.4155,0.414,0.4109,0.412,0.4271,0.4291,0.4201,0.4467,0.4364,0.4386,0.4449,0.4481,0.4506,0.4498,0.4091,0,0,0,0,0,0.3846,0.3935,0.3957,0.4103,0.4128,0.4125,0.4174,0.4151,0.4198,0.4218,0.4239,0.4287,0.437,0.4427,0.4505,0.4684,0.4693,0.4768,0.4793,0.4814,0.4833,0.4929,0.4962,0.4606,0.4606,0.4605,0,0,0.3945,0.3972,0.4031,0.4129,0.4162,0.4256,0.4142,0.4247,0.4316,0.4234,0.437,0.4387,0.4438,0.46,0.4673,0.4622,0.4933,0.4833,0.485,0.4858,0.4948,0.4982,0.5012,0.4616,0.4614,0.4613,0,0,0.4173,0.4202,0.4327,0.4362,0.4413,0.4409,0.4439,0.4477,0.4485,0.462,0.4561,0.4642,0.4787,0.4826,0.4865,0.5105,0.5056,0.5131,0.5264,0.5357,0.5385,0.541,0.5495,0.5526,0.515,0.515,0.515,0,0.429,0.4428,0.4397,0.4505,0.455,0.4478,0.4604,0.464,0.4714,0.4747,0.4688,0.4867,0.4897,0.5066,0.5124,0.5158,0.5191,0.5126,0.5383,0.5408,0.543,0.5511,0.5544,0.5159,0.5158,0.5157,0.5156,0,0.4569,0.4665,0.476,0.4831,0.4887,0.5004,0.4991,0.505,0.5022,0.5025,0.5163,0.5196,0.5279,0.5317,0.5292,0.5483,0.5449,0.5388,0.5284,0.5474,0.5549,0.558,0.5172,0.5168,0.5166,0.5164,0,0,0.4882,0.4933,0.4968,0.4999,0.5049,0.5123,0.5235,0.5315,0.5366,0.5419,0.5513,0.5636,0.5579,0.5623,0.5601,0.5683,0.587,0.561,0.5611,0.5658,0.6081,0.6128,0.6165,0.5837,0.5842,0.5847,0.6077,0,0.5111,0.5306,0.528,0.5468,0.5556,0.5487,0.5585,0.5627,0.5631,0.5707,0.5712,0.58,0.5717,0.5743,0.5821,0.5831,0.5954,0.5813,0.5924,0.5928,0.5914,0.6204,0.6255,0.647,0.6106,0.6111,0.6115,0,0.5405,0.5467,0.5663,0.5696,0.5732,0.5821,0.5891,0.5964,0.6009,0.6006,0.6054,0.6017,0.6129,0.6022,0.6176,0.6081,0.6124,0.6136,0.6143,0.6154,0.6034,0.6223,0.6539,0.6571,0.6161,0.6158,0.6154,0,0.5614,0.5746,0.5879,0.5908,0.5951,0.6015,0.6036,0.6074,0.6123,0.6184,0.6215,0.6289,0.6329,0.6387,0.6371,0.6294,0.6529,0.642,0.653,0.6531,0.6584,0.6581,0.6912,0.6611,0.6611,0.661,0.6609,0,0.5873,0.5996,0.5974,0.6056,0.6191,0.616,0.6294,0.6307,0.6341,0.6424,0.637,0.6449,0.6422,0.65,0.6488,0.6617,0.6636,0.6637,0.6633,0.6643,0.6643,0.6672,0.6657,0.6619,0.6617,0.6615,0.6614,0,0.613,0.612,0.6261,0.6289,0.6299,0.6397,0.6421,0.6499,0.6498,0.6604,0.6627,0.6627,0.6716,0.6704,0.6804,0.6795,0.6956,0.6933,0.6941,0.6936,0.7047,0.7037,0.7409,0.7456,0.7124,0.7127,0.713,0,0.6297,0.6389,0.6427,0.6478,0.6503,0.6587,0.6635,0.6608,0.6661,0.6717,0.6788,0.6871,0.6937,0.7082,0.709,0.7166,0.7144,0.7269,0.7156,0.7162,0.7147,0.7142,0.7151,0.7293,0.7296,0.7299,0.7302,0,0.6594,0.6584,0.6656,0.6726,0.6785,0.6839,0.6888,0.6933,0.691,0.6973,0.7062,0.7113,0.7213,0.7296,0.7367,0.7388,0.7342,0.7337,0.7367,0.7379,0.738,0.7381,0.7003,0.7329,0.7327,0.7325,0.7323,0.7322,0.6812,0.689,0.6928,0.7009,0.7042,0.7088,0.7162,0.7169,0.7243,0.7322,0.7301,0.7402,0.7442,0.7531,0.756,0.7639,0.7593,0.7636,0.7647,0.7658,0.7671,0.7366,0.7651,0.7651,0.765,0.7649,0.7649,0,0.7106,0.7126,0.7201,0.727,0.7334,0.7282,0.7333,0.739,0.7479,0.752,0.7585,0.7687,0.7767,0.7781,0.7857,0.7917,0.7898,0.7938,0.7934,0.794,0.7708,0.7675,0.7952,0.7952,0.7952,0.7952,0.7952,0.7952,0.7267,0.7396,0.739,0.7535,0.7554,0.7652,0.7685,0.7727,0.7759,0.7875,0.7941,0.7949,0.7979,0.8056,0.8127,0.8129,0.8159,0.8209,0.8203,0.7986,0.7956,0.7927,0.7896,0.8215,0.8216,0.8427,0.8429,0.8431]}]]